This demonstration page uses our WeatherBlox Daily Observations layout. Learn more.

Left ArrowRight Arrow

39.12711, -84.51439

Hourly Observations for July 15, 2018

Temp ( °F °C ) Dew Point ( °F °C ) Humidity (%) Winds ( mph kmh ) Pressure ( in mb ) Visibility ( mi km ) Precip ( " mm )
12:53 am 00:53 Clear 73 22.8 69 20.6 87 87 Calm 30.03 1017 10 16 0.00 0.00
1:53 am 01:53 Clear 73 22.8 70 21.1 90 90 Calm 30.03 1017 9 14 0.00 0.00
2:53 am 02:53 Clear 72 22.2 70 21.1 94 94 Calm 30.01 1016 9 14 0.00 0.00
3:53 am 03:53 Clear 71 21.7 70 21.1 96 96 Calm 30.01 1016 7 11 0.00 0.00
4:53 am 04:53 Clear 70 21.1 69 20.6 97 97 Calm 30.01 1016 7 11 0.00 0.00
5:53 am 05:53 Clear 72 22.2 70 21.1 94 94 Calm 30.02 1017 8 13 0.00 0.00
6:53 am 06:53 Sunny with Mist and Fog 72 22.2 71 21.7 97 97 Calm 30.02 1017 6 10 0.00 0.00
7:53 am 07:53 Sunny with Mist and Fog 72 22.2 71 21.7 97 97 Calm 30.04 1017 6 10 0.00 0.00
8:53 am 08:53 Partly Cloudy with Mist and Fog 74 23.3 73 22.8 97 97 Calm 30.04 1017 6 10 0.00 0.00
9:53 am 09:53 Sunny 77 25 72 22.2 85 85 Calm 30.03 1017 8 13 0.00 0.00
10:53 am 10:53 Sunny 80 26.7 73 22.8 79 79 SSW 3 6 30.01 1016 8 13 0.00 0.00
11:53 am 11:53 Sunny 82 27.8 74 23.3 77 77 SSE 5 7 30.01 1016 8 13 0.00 0.00
12:53 pm 12:53 Sunny 83 28.3 74 23.3 74 74 S 5 7 30.01 1016 8 13 0.00 0.00
1:53 pm 13:53 Sunny 84 28.9 73 22.8 70 70 S 8 13 30.01 1016 9 14 0.00 0.00
2:53 pm 14:53 Sunny 84 28.9 72 22.2 67 67 S 8 13 30.01 1016 10 16 0.00 0.00
3:53 pm 15:53 Mostly Sunny 86 30 74 23.3 67 67 SE 5 7 29.98 1015 10 16 0.00 0.00
4:53 pm 16:53 Mostly Sunny 87 30.6 75 23.9 67 67 SW 8 13 29.96 1015 10 16 0.00 0.00
5:53 pm 17:53 Cloudy 84 28.9 74 23.3 72 72 SSW 7 11 29.97 1015 8 13 0.00 0.00
6:53 pm 18:53 Cloudy 82 27.8 76 24.4 82 82 S 7 11 29.97 1015 7 11 0.00 0.00
7:53 pm 19:53 Partly Cloudy 82 27.8 75 23.9 79 79 S 7 11 29.96 1014 8 13 0.00 0.00
8:53 pm 20:53 Mostly Cloudy 81 27.2 75 23.9 82 82 SW 7 11 29.96 1014 8 13 0.00 0.00
9:53 pm 21:53 Partly Cloudy with Mist and Fog 78 25.6 74 23.3 87 87 S 3 6 29.96 1015 6 10 0.00 0.00
10:53 pm 22:53 Clear 73 22.8 73 22.8 100 100 SSW 5 7 29.99 1016 7 11 0.00 0.00
11:53 pm 23:53 Partly Cloudy with Mist and Fog 74 23.3 73 22.8 97 97 Calm 29.99 1016 6 10 0.00 0.00

Powered by AerisWeather